Hourly Weather Roundup
Issued by NWS Central Illinois

Home | Current Version | Previous Version | Text Only | Print | Product List | Glossary On
Versions: 1 2 3 4 5 6 7 8 9 10 11 12 13 14 15 16 17 18 19 20 21 22 23 24 25 26 27 28 29 30 31 32 33 34 35 36 37 38 39 40 41 42 43 44 45 46 47 48 49 50
000
NZUS43 KILX 241910
HWRILX

AREA WEATHER ROUNDUP
NATIONAL WEATHER SERVICE, LINCOLN IL
200 PM CDT TUE MAY 24 2016


CITY           SKY/WX    TMP DP  RH WIND       PRES   REMARKS
BLOOMINGTON    MOSUNNY   84  59  42 S20       29.97F HX  84
CHAMPAIGN      MOSUNNY   87  51  28 S17G28    30.00F HX  85
DANVILLE       SUNNY     86  49  28 S16       29.99F HX  83
DECATUR        SUNNY     83  58  42 S15       29.99F HX  83
EFFINGHAM      SUNNY     80  59  47 S13G20    30.04F HX  81
FLORA          MOSUNNY   82  59  45 S15       30.04S HX  82
GALESBURG      SUNNY     83  60  45 SE13G18   29.94S HX  83
JACKSONVILLE   SUNNY     83  61  46 S12       29.95F HX  84
LACON          SUNNY     84  55  37 SW10      29.94F HX  83
LAWRENCEVILLE  SUNNY     83  57  41 S17       30.04F HX  82
LITCHFIELD     MOSUNNY   80  59  48 S13       30.00S HX  81
$$


CITY           SKY/WX    TMP DP  RH WIND       PRES   REMARKS
LINCOLN        SUNNY     84  60  44 S14G21    29.96F HX  84
MACOMB         SUNNY     85  59  40 S9G16     29.96S HX  84
MATTOON        MOSUNNY   80  55  42 S13G20    30.01F HX  80
MT CARMEL AP   PTSUNNY   82  52  34 SW12G18   30.04F HX  81
OLNEY-NOBLE AP PTSUNNY   82  55  39 S9        30.03F HX  82
PARIS          MOSUNNY   84  55  36 S10       30.03F HX  83
PEORIA         SUNNY     84  59  42 S13G18    29.95F HX  84
PONTIAC        SUNNY     87  51  28 S14G21    29.96F HX  85
RANTOUL        MOSUNNY  N/A N/A N/A SW15G22   29.99F
ROBINSON       SUNNY     80  58  47 S15       30.04F HX  81
SPRINGFIELD    MOSUNNY   83  60  45 S12G23    29.97F HX  83
TAYLORVILLE    SUNNY     82  60  47 S14       29.99F HX  82
$$

...REGIONAL REPORTS...


CITY           SKY/WX    TMP DP  RH WIND       PRES   REMARKS
CHICAGO O`HARE PTSUNNY   84  53  34 SW18      29.95F HX  82
KANKAKEE       SUNNY    N/A N/A N/A S15G21    29.98F
MOLINE         SUNNY     86  59  39 SW12      29.90F HX  85
MOUNT STERLING SUNNY     82  61  49 SE12      29.94S HX  82
MOUNT VERNON   PTSUNNY   81  61  50 SW12G17   30.04S HX  81
PITTSFIELD     MOSUNNY   83  63  50 S9        29.95F HX  83
QUINCY         MOSUNNY   81  62  52 SW9       29.96R HX  82
ROCKFORD       PTSUNNY   84  57  39 SW16G23   29.95F HX  83
$$


CITY           SKY/WX    TMP DP  RH WIND       PRES   REMARKS
BURLINGTON     PTSUNNY   80  62  54 S13       29.93S HX  81
CEDAR RAPIDS   MOSUNNY   81  64  56 VRB6      29.90F HX  82
DES MOINES     PTSUNNY   77  63  61 CALM      29.91S
KIRKSVILLE     CLOUDY    76  67  73 S8        29.95F
OTTUMWA        PTSUNNY   82  65  56 SW12      29.90F HX  84
ST LOUIS       PTSUNNY   86  62  44 SW12      29.99S HX  86
$$


CITY           SKY/WX    TMP DP  RH WIND       PRES   REMARKS
TERRE HAUTE    SUNNY     83  55  38 S14       30.04F HX  82
EVANSVILLE     CLOUDY    80  57  45 VRB6      30.06F HX  80
INDIANAPOLIS   PTSUNNY   81  54  39 W12G18    30.05F HX  81
LAFAYETTE      SUNNY     83  49  30 MISG      30.02F HX  81
MADISON        LGT RAIN  76  59  55 VRB3      29.94F
MILWAUKEE      CLOUDY    83  59  44 S13G22    29.94F HX  83
$$






USA.gov is the U.S. government's official web portal to all federal, state and local government web resources and services.